Wind_Speed
25 27 27 28 27 27 27 26 26 26 25 24 23 22 21 20 19 19 18 17 16 15 13 12 11 10 9 9 8 7 7 7 7 7 7 7 7 8 8 8 9 10 11
27 28 29 29 29 29 29 29 28 28 27 27 26 25 24 23 22 21 20 19 18 17 16 14 13 12 11 10 9 9 9 8 8 8 8 8 8 8 8 9 10 10 11
29 29 30 30 31 31 31 31 30 30 29 29 28 27 26 25 24 23 22 21 20 19 18 17 15 13 13 12 11 11 10 10 10 10 9 9 9 9 9 10 10 11 11
31 31 32 32 32 33 33 33 32 32 31 31 30 29 29 28 26 25 24 23 22 21 20 18 17 15 14 14 13 12 12 11 11 11 10 10 10 10 10 11 11 11 12
34 33 34 34 34 35 35 35 34 34 33 33 32 31 31 30 29 27 26 25 24 23 21 20 19 18 16 15 15 14 13 13 12 12 11 11 11 11 11 11 12 12 13
38 37 36 36 36 36 36 37 37 36 35 35 34 33 33 32 31 29 28 27 26 24 23 22 21 20 18 17 16 15 15 14 14 13 12 12 12 12 12 12 13 13 14
41 40 40 39 39 39 39 38 39 38 37 36 36 36 35 34 33 31 30 29 28 26 25 24 22 21 20 19 18 17 16 16 15 14 14 13 13 13 13 14 14 14 15
44 43 43 42 42 42 41 41 41 40 39 38 38 37 37 35 35 34 32 31 29 28 27 25 24 23 22 21 20 19 18 17 16 15 15 15 14 14 15 15 15 16 16
48 46 46 45 45 44 44 43 43 42 41 41 40 39 38 37 37 35 34 33 31 29 28 27 26 25 24 23 22 20 19 18 17 17 16 16 16 16 16 16 17 17 18
51 50 49 48 47 47 46 46 45 45 44 43 42 41 40 40 39 37 36 35 33 31 29 28 27 26 25 24 23 22 21 20 19 18 18 18 18 18 18 18 18 19 19
55 54 52 51 50 50 49 48 48 47 46 45 44 43 42 41 40 39 37 36 34 33 31 30 29 28 26 25 25 24 22 21 21 20 19 19 19 19 19 19 19 20 21
58 57 56 54 53 52 52 51 51 50 49 48 46 45 44 43 42 40 39 37 36 34 33 31 30 29 27 27 26 25 24 23 22 21 21 20 20 20 20 21 21 21 22
60 60 59 57 56 55 55 54 53 52 51 50 49 47 45 44 43 42 40 39 38 36 34 33 32 30 29 28 27 26 26 25 23 23 22 21 21 21 22 22 22 23 23
62 62 61 59 58 57 57 56 55 55 54 52 50 49 47 46 44 43 42 40 39 38 36 34 33 32 31 29 28 27 27 26 25 24 23 23 22 23 23 23 23 24 24
64 63 62 61 60 59 59 58 57 56 56 54 51 49 48 48 46 45 43 42 40 39 38 36 34 33 32 31 30 29 28 27 26 25 24 24 24 24 24 24 24 25 26
63 63 63 63 61 61 61 60 59 58 57 56 54 52 50 49 48 46 45 44 42 40 39 38 36 34 33 32 31 30 29 28 27 26 26 25 25 25 25 25 26 26 27
61 62 64 63 63 62 62 61 60 59 59 58 56 54 52 50 49 48 46 45 44 42 40 39 37 36 34 33 32 30 29 29 28 27 27 26 26 26 26 26 27 27 28
57 60 62 63 63 63 63 62 61 61 60 59 57 55 54 52 51 50 47 46 45 43 41 40 38 36 35 33 32 31 30 29 28 28 28 27 27 27 27 27 28 29 29
54 57 59 61 62 62 63 63 62 62 61 60 59 57 55 54 52 51 50 47 46 44 42 41 39 37 36 34 32 31 31 30 29 29 29 28 28 28 28 28 29 30 31
52 55 56 58 60 62 62 62 62 63 63 61 61 58 57 55 53 52 51 49 46 45 44 42 40 38 37 35 33 32 31 30 30 30 30 29 29 29 29 29 30 31 32
51 53 55 57 58 61 62 62 62 63 64 62 62 60 57 55 54 53 52 50 47 45 44 42 41 39 38 36 35 33 32 31 31 31 30 30 30 30 30 30 31 32 33
48 51 53 55 58 60 61 61 61 61 62 61 62 61 59 56 54 52 52 49 47 46 44 42 41 40 38 37 36 35 34 33 32 31 31 31 31 31 31 31 32 33 34
45 49 52 52 55 59 61 62 61 62 63 62 61 61 59 57 55 53 52 50 48 47 46 43 41 40 39 38 37 36 35 34 34 32 32 32 32 31 31 32 33 34 35
44 47 50 52 53 57 59 61 63 62 63 62 62 61 61 58 55 52 51 51 49 47 46 45 43 41 40 38 37 36 36 35 34 33 33 33 32 31 32 32 33 34 36
42 46 48 49 52 56 59 59 61 61 61 63 63 61 59 59 56 52 51 50 48 46 46 44 43 41 40 39 38 37 36 35 35 34 33 32 32 32 33 33 34 35 36
39 44 46 48 51 54 57 59 59 59 60 61 61 60 59 57 56 53 51 49 47 46 45 43 42 42 41 39 38 37 36 35 35 33 33 33 33 33 34 34 35 36 37
Wind_Direction
246 246 246 245 243 242 241 239 237 236 236 235 234 234 236 236 237 238 239 240 241 243 246 249 254 260 265 270 273 274 280 289 299 302 305 311 316 319 323 326 330 331 333
248 246 245 244 243 242 241 240 238 237 237 236 236 235 235 236 238 238 240 241 242 244 246 249 253 258 263 268 271 274 279 285 294 296 298 303 308 313 317 321 324 326 329
251 248 246 245 243 242 241 240 239 237 237 237 237 236 237 237 238 239 240 241 243 245 247 249 252 256 260 265 270 273 276 281 288 290 293 295 301 306 311 315 319 322 325
252 248 246 245 243 242 241 241 239 239 238 238 238 238 238 239 238 239 240 241 243 245 247 249 251 254 259 263 268 272 275 279 284 287 289 291 295 300 306 311 315 318 321
253 249 246 244 243 242 242 241 240 239 239 238 238 239 239 239 239 239 241 241 243 245 247 248 250 253 257 261 265 271 275 278 280 283 285 287 290 295 302 308 312 315 319
254 251 247 245 243 242 241 240 240 240 240 239 239 239 239 239 240 240 241 241 242 244 246 247 249 252 256 259 263 268 274 277 277 279 282 284 287 291 298 304 309 313 316
253 251 249 245 243 242 241 240 240 240 240 240 240 240 240 239 240 240 240 241 242 243 245 246 248 251 254 258 261 266 271 276 276 277 279 282 284 288 294 300 306 310 314
252 250 248 246 244 242 240 240 239 240 240 240 239 239 240 239 239 239 240 240 241 243 245 246 247 250 253 256 259 263 268 273 274 275 277 280 283 286 291 297 303 307 312
252 250 248 247 245 242 240 239 239 239 239 239 239 239 239 239 239 239 240 240 241 242 244 245 247 250 252 255 258 261 266 271 272 273 276 279 283 286 289 293 299 304 309
251 249 247 246 244 243 240 239 238 238 238 239 239 239 238 238 239 240 239 240 241 242 244 245 247 249 251 254 258 261 265 269 271 272 275 278 282 285 288 291 296 301 306
250 248 246 244 243 241 240 238 238 238 237 237 238 238 238 238 239 239 239 240 241 242 243 245 246 249 251 254 257 261 264 267 270 271 274 278 281 284 287 290 294 299 304
249 247 245 243 241 240 238 237 237 237 237 237 237 237 237 238 238 239 239 239 241 242 243 245 246 248 250 253 256 260 263 266 268 270 273 276 280 284 287 290 293 297 302
248 246 244 242 240 238 237 236 235 236 236 236 236 236 236 237 238 238 238 239 240 241 243 245 246 247 250 253 256 259 263 265 267 269 271 275 279 283 287 290 292 296 300
245 244 242 240 239 237 236 235 234 234 234 235 235 235 235 236 238 237 237 238 239 241 242 244 245 247 250 253 256 259 262 264 266 268 271 274 278 283 287 289 292 295 298
245 242 240 239 237 236 234 233 233 233 233 233 233 234 234 235 236 236 236 237 239 240 242 243 245 246 249 252 256 258 260 263 265 267 270 274 278 283 287 289 291 295 298
244 242 239 237 235 234 233 232 231 231 231 231 231 231 233 234 235 235 236 237 237 239 241 243 245 247 249 252 254 257 259 262 263 266 269 274 278 283 287 289 291 294 297
242 240 237 235 233 232 231 230 229 229 229 229 229 230 231 232 233 233 235 236 237 238 239 242 245 247 250 251 254 257 259 261 263 266 269 273 278 283 287 289 291 294 297
240 238 235 232 231 229 229 229 228 228 227 227 227 228 229 231 233 234 234 236 236 237 239 241 244 247 249 251 254 256 258 261 263 265 269 273 278 282 286 288 291 294 297
237 236 233 231 229 227 226 227 226 226 225 225 226 227 228 230 232 233 234 234 236 236 238 240 243 245 247 250 253 256 258 261 263 265 269 273 277 282 286 289 291 294 297
235 234 231 229 227 225 223 224 224 225 224 224 224 226 227 228 232 233 234 233 234 236 238 240 242 245 247 249 252 255 258 261 263 265 269 273 277 282 285 288 291 294 297
233 232 230 228 225 223 221 221 221 223 223 223 223 225 225 227 229 232 233 233 234 236 238 239 242 245 247 249 252 255 258 262 264 266 269 273 277 281 285 288 291 294 296
232 229 227 226 224 222 220 220 220 221 221 221 222 223 225 226 228 231 232 232 234 235 237 239 241 244 246 249 252 255 257 261 264 267 269 272 277 280 284 288 291 294 296
230 227 225 223 223 221 219 218 218 217 218 219 220 221 223 224 226 229 230 231 233 235 237 239 241 244 247 250 253 256 258 260 264 267 269 272 276 279 283 288 292 294 296
230 226 224 223 222 220 218 218 218 217 218 219 220 221 222 223 225 228 230 230 232 234 237 239 241 244 247 250 253 256 258 260 263 266 269 272 275 279 283 288 292 294 296
229 225 222 222 220 219 218 218 219 218 217 217 219 221 221 223 224 227 229 230 232 234 237 239 241 243 246 249 253 256 259 261 263 266 270 272 275 279 283 288 292 295 297
227 223 221 221 219 217 218 218 218 218 217 217 218 220 221 221 223 226 229 230 232 234 236 239 242 244 247 250 252 256 259 261 263 265 268 271 275 279 284 288 292 295 297
Height
5842 5843 5845 5847 5849 5850 5852 5854 5856 5858 5860 5861 5863 5864 5865 5867 5868 5869 5870 5871 5872 5873 5874 5875 5875 5875 5875 5876 5875 5875 5875 5875 5874 5874 5873 5872 5872 5871 5870 5869 5868 5867 5866
5837 5839 5840 5842 5844 5846 5848 5850 5852 5854 5856 5858 5859 5861 5862 5864 5865 5867 5868 5869 5870 5871 5872 5873 5874 5874 5874 5874 5874 5874 5874 5874 5873 5873 5872 5872 5871 5870 5869 5868 5867 5866 5865
5832 5834 5835 5837 5839 5841 5843 5845 5848 5850 5852 5854 5856 5857 5859 5861 5862 5864 5865 5867 5868 5869 5870 5871 5872 5873 5873 5873 5873 5873 5872 5872 5872 5871 5871 5870 5870 5869 5868 5867 5866 5865 5863
5826 5828 5830 5831 5834 5836 5838 5841 5843 5845 5847 5849 5851 5853 5855 5857 5859 5861 5862 5864 5865 5867 5868 5869 5870 5871 5871 5871 5871 5871 5871 5871 5871 5870 5870 5869 5868 5867 5867 5866 5865 5863 5862
5819 5822 5824 5826 5828 5830 5833 5835 5838 5840 5842 5845 5847 5849 5851 5853 5855 5857 5859 5860 5862 5864 5865 5866 5867 5868 5869 5869 5869 5869 5869 5869 5869 5869 5868 5867 5867 5866 5865 5864 5863 5862 5860
5811 5814 5817 5819 5821 5824 5826 5829 5832 5835 5837 5839 5842 5844 5846 5848 5851 5853 5855 5857 5859 5860 5862 5863 5865 5865 5866 5867 5867 5867 5867 5867 5867 5867 5866 5866 5865 5864 5863 5862 5861 5860 5858
5803 5806 5808 5811 5814 5817 5820 5823 5825 5828 5831 5834 5836 5839 5841 5844 5846 5848 5850 5852 5855 5857 5858 5860 5861 5862 5863 5864 5864 5864 5865 5865 5865 5865 5864 5864 5863 5862 5861 5860 5859 5857 5856
5793 5797 5800 5803 5806 5809 5812 5815 5818 5821 5825 5828 5830 5833 5836 5838 5841 5843 5846 5848 5850 5852 5854 5856 5858 5859 5860 5861 5861 5862 5862 5862 5862 5862 5862 5861 5861 5860 5859 5858 5856 5855 5853
5783 5787 5790 5794 5797 5800 5804 5808 5811 5814 5818 5821 5824 5827 5830 5832 5835 5838 5841 5843 5846 5848 5850 5852 5854 5855 5856 5857 5858 5859 5859 5859 5860 5860 5859 5859 5858 5857 5856 5855 5854 5852 5851
5771 5776 5780 5784 5788 5791 5795 5799 5803 5806 5810 5813 5817 5820 5823 5826 5829 5832 5835 5838 5841 5843 5845 5848 5849 5851 5852 5854 5855 5855 5856 5856 5857 5857 5856 5856 5855 5854 5853 5852 5851 5849 5847
5758 5763 5768 5772 5777 5781 5785 5790 5794 5798 5802 5805 5809 5812 5816 5819 5823 5826 5830 5833 5836 5838 5841 5843 5845 5847 5848 5850 5851 5852 5852 5853 5853 5853 5853 5852 5852 5851 5850 5849 5848 5846 5844
5744 5749 5755 5760 5765 5770 5775 5779 5784 5789 5793 5797 5801 5805 5809 5813 5816 5820 5824 5827 5830 5833 5836 5838 5840 5842 5844 5846 5847 5848 5849 5849 5850 5849 5849 5849 5848 5847 5846 5845 5844 5842 5840
5729 5735 5741 5746 5752 5757 5763 5768 5774 5779 5783 5788 5793 5797 5801 5805 5809 5814 5817 5821 5824 5827 5830 5833 5835 5838 5839 5841 5842 5843 5844 5845 5846 5845 5845 5845 5844 5844 5843 5841 5840 5838 5837
5712 5719 5726 5732 5738 5744 5750 5756 5762 5768 5773 5779 5784 5789 5793 5798 5802 5807 5811 5815 5818 5822 5824 5827 5830 5832 5834 5836 5837 5839 5840 5841 5841 5841 5841 5841 5840 5840 5839 5837 5836 5834 5832
5694 5701 5709 5716 5723 5730 5737 5744 5750 5756 5763 5769 5775 5781 5785 5790 5795 5799 5803 5808 5812 5815 5818 5822 5824 5827 5829 5831 5832 5834 5835 5836 5837 5837 5837 5837 5836 5835 5834 5833 5831 5830 5828
5676 5684 5692 5700 5708 5715 5723 5730 5737 5744 5751 5758 5765 5771 5777 5782 5786 5791 5795 5800 5805 5808 5812 5815 5818 5821 5823 5825 5827 5828 5830 5831 5832 5832 5832 5832 5832 5831 5830 5828 5827 5825 5823
5659 5666 5674 5683 5692 5700 5708 5716 5724 5732 5740 5747 5755 5761 5767 5773 5778 5783 5788 5793 5797 5801 5805 5809 5812 5815 5818 5820 5821 5823 5824 5825 5826 5827 5827 5827 5827 5826 5825 5823 5822 5820 5818
5642 5649 5658 5666 5676 5684 5693 5702 5711 5719 5728 5736 5744 5751 5758 5764 5769 5775 5780 5784 5789 5794 5798 5802 5805 5809 5812 5814 5816 5817 5818 5820 5821 5822 5822 5822 5821 5821 5820 5818 5816 5814 5812
5627 5634 5642 5651 5661 5669 5679 5688 5698 5707 5715 5724 5732 5740 5748 5755 5760 5766 5772 5776 5781 5786 5791 5795 5799 5802 5805 5808 5810 5811 5813 5814 5815 5816 5816 5816 5816 5815 5814 5813 5811 5809 5807
5613 5620 5628 5637 5646 5655 5665 5674 5684 5693 5703 5712 5721 5729 5737 5744 5751 5757 5763 5768 5774 5779 5783 5788 5792 5795 5798 5801 5803 5805 5807 5808 5809 5810 5810 5811 5810 5809 5808 5807 5805 5803 5801
5600 5607 5615 5623 5632 5641 5651 5661 5671 5680 5691 5701 5710 5718 5726 5734 5741 5748 5754 5760 5766 5771 5775 5780 5784 5788 5791 5794 5797 5799 5800 5802 5803 5804 5804 5804 5804 5803 5802 5801 5799 5797 5794
5588 5595 5603 5611 5620 5629 5639 5649 5659 5669 5679 5689 5698 5707 5716 5725 5732 5738 5745 5751 5757 5763 5767 5772 5777 5781 5784 5787 5790 5792 5794 5796 5797 5797 5798 5798 5798 5797 5796 5794 5793 5790 5788
5577 5584 5591 5600 5607 5617 5627 5637 5647 5657 5667 5677 5687 5696 5706 5715 5723 5729 5736 5743 5749 5755 5760 5765 5769 5774 5777 5780 5783 5786 5787 5789 5790 5791 5791 5792 5791 5790 5789 5788 5786 5784 5781
5567 5574 5582 5590 5597 5606 5616 5626 5637 5647 5657 5669 5678 5687 5696 5705 5713 5720 5727 5734 5740 5746 5752 5757 5762 5766 5770 5773 5776 5778 5781 5782 5783 5784 5785 5785 5784 5784 5783 5781 5779 5777 5774
5559 5565 5573 5580 5588 5597 5607 5616 5627 5636 5648 5659 5668 5677 5687 5696 5704 5711 5718 5726 5732 5738 5744 5749 5754 5758 5762 5765 5768 5771 5773 5775 5776 5777 5778 5778 5778 5777 5776 5774 5772 5770 5767
5551 5557 5564 5571 5579 5588 5597 5607 5618 5628 5638 5648 5658 5668 5677 5686 5694 5703 5710 5717 5724 5730 5736 5741 5746 5750 5754 5758 5761 5763 5765 5767 5769 5770 5771 5771 5770 5770 5769 5767 5765 5763 5760